Simultaneous Nadir Overpasses (SNOs) Predictions

Prediction of SNOs between GOES-17 and LANDSAT-8 Satellite Orbit:

Table of predicted SNOs for the next 14.0 days since TLE Epoch: 5/4/2024
Index Date Time (GOES-17) GOES-17 Lat,Lon LANDSAT-8 Lat,Lon Distance(km) Time Diff (sec)
1 05/04/2024 16:53:44 -0.01,-104.70 -0.94,-100.34 496.66 80
2 05/05/2024 05:15:07 0.01,-104.70 -0.17,-105.53 94.25 80
3 05/07/2024 05:00:15 0.01,-104.70 0.46,-102.57 242.19 80
4 05/07/2024 17:21:30 -0.00,-104.71 0.66,-107.73 343.68 80
5 05/09/2024 17:09:18 0.00,-104.71 0.01,-104.78 7.32 80
6 05/11/2024 16:59:45 0.01,-104.71 -0.59,-101.81 329.16 80
7 05/12/2024 05:21:09 -0.01,-104.71 -0.51,-107.01 261.49 80
8 05/14/2024 05:06:17 0.00,-104.71 0.16,-104.06 74.95 80
9 05/16/2024 04:54:04 0.02,-104.72 0.79,-101.10 411.61 80
10 05/16/2024 17:15:19 -0.02,-104.73 0.32,-106.26 174.25 80
